Springfield, IL

6:36 AM CST on December 11, 2019 (GMT -0600)
Capital

Weather History for KSPI - October, 2019

Change the Weather History Date:

Monday, October 21, 2019

  Actual Average Record
Temperature  
Mean Temperature 59 °F 54 °F  
Max Temperature 66 °F 64 °F 89 °F (1979)
Min Temperature 51 °F 43 °F 21 °F (2018)
Degree Days  
Heating Degree Days 6 12  
Month to date heating degree days 188 193  
Since 1 July heating degree days 189 274  
Cooling Degree Days 0 0  
Month to date cooling degree days 32 19  
Year to date cooling degree days 1309 1118  
Growing Degree Days 10 (Base 50)    
Moisture  
Dew Point 51 °F    
Average Humidity 67    
Maximum Humidity 90    
Minimum Humidity 43    
Precipitation  
Precipitation 0.36 in 0.11 in 1.99 in (1983)
Month to date precipitation 1.04 2.11  
Year to date precipitation 41.59 30.66  
Snow  
Snow 0.00 in 0.00 in T in (1937)
Month to date snowfall 0.0 0.0  
Since 1 July snowfall 0.0 0.0  
Since 1 September snowfall 0.0 0.0  
Snow Depth 0.00 in    
Sea Level Pressure  
Sea Level Pressure 29.54 in    
Wind  
Wind Speed 15 mph (South)    
Max Wind Speed 28 mph    
Max Gust Speed 38 mph    
Visibility 9 miles    
Events Rain , Thunderstorm    
T = Trace of Precipitation, MM = Missing Value Source: NWS Daily Summary

Daily Weather History Graph

Daily Weather History Graph

Search for Another Location

Airport or City:

Astronomy

Oct. 21, 2019 Rise Set
Actual Time 7:15 AM CDT 6:10 PM CDT
Civil Twilight 6:47 AM CDT 6:38 PM CDT
Nautical Twilight 6:16 AM CDT 7:09 PM CDT
Astronomical Twilight 5:44 AM CDT 7:41 PM CDT
Moon No Moon Rise 2:32 PM CDT (10/21)
Length of Visible Light 11h 50m
Length of Day
10h 55m
Waning Gibbous, 48% of the Moon is Illuminated
Oct 21
Waning Gibbous
Oct 27
New
Nov 4
First Quarter
Nov 12
Full
Nov 19
Last Quarter

Hourly Weather History & Observations

Time (CDT) Temp. Dew Point Humidity Pressure Visibility Wind Dir Wind Speed Gust Speed Precip Events Conditions
12:52 AM 55.9 °F 50.0 °F 80% 29.73 in 9.0 mi SE 9.2 mph - N/A   Partly Cloudy
1:52 AM 57.0 °F 50.0 °F 77% 29.70 in 10.0 mi SE 9.2 mph - N/A   Scattered Clouds
2:52 AM 57.9 °F 50.0 °F 75% 29.66 in 10.0 mi ESE 11.5 mph - N/A   Partly Cloudy
3:52 AM 59.0 °F 50.0 °F 72% 29.61 in 10.0 mi ESE 10.4 mph - N/A   Scattered Clouds
4:52 AM 60.1 °F 52.0 °F 75% 29.55 in 10.0 mi ESE 13.8 mph 23.0 mph N/A   Partly Cloudy
5:21 AM 59.0 °F 54.0 °F 83% 29.54 in 9.0 mi SE 13.8 mph 26.5 mph 0.01 in Rain , Thunderstorm Light Rain
5:29 AM 59.0 °F 54.0 °F 83% 29.55 in 4.0 mi SE 11.5 mph - 0.03 in Rain , Thunderstorm Heavy Thunderstorms and Rain
5:52 AM 57.9 °F 55.0 °F 90% 29.52 in 4.0 mi ESE 15.0 mph 25.3 mph 0.12 in Rain Heavy Rain
6:06 AM 59.0 °F 55.9 °F 90% 29.54 in 1.8 mi ESE 11.5 mph 21.9 mph 0.08 in Rain Heavy Rain
6:16 AM 59.0 °F 55.9 °F 90% 29.52 in 2.0 mi SE 15.0 mph 23.0 mph 0.19 in Rain Rain
6:25 AM 60.1 °F 57.0 °F 90% 29.47 in 2.5 mi ESE 13.8 mph 23.0 mph 0.24 in Rain Rain
6:27 AM 60.1 °F 57.0 °F 90% 29.46 in 3.0 mi East 16.1 mph - 0.24 in Rain Light Rain
6:47 AM 60.8 °F 57.2 °F 88% 29.45 in 10.0 mi SE 20.7 mph 35.7 mph 0.24 in   Overcast
6:52 AM 60.1 °F 57.0 °F 90% 29.44 in 10.0 mi SE 18.4 mph 35.7 mph 0.24 in   Overcast
7:02 AM 60.1 °F 57.0 °F 90% 29.45 in 10.0 mi SSE 18.4 mph 25.3 mph N/A   Mostly Cloudy
7:13 AM 61.0 °F 57.0 °F 87% 29.44 in 10.0 mi SSE 21.9 mph 35.7 mph N/A   Scattered Clouds
7:38 AM 61.0 °F 57.0 °F 87% 29.44 in 10.0 mi SSE 20.7 mph 38.0 mph N/A   Mostly Cloudy
7:52 AM 61.0 °F 57.0 °F 87% 29.43 in 10.0 mi SSE 21.9 mph 38.0 mph 0.00 in   Overcast
8:24 AM 62.1 °F 57.9 °F 86% 29.45 in 10.0 mi South 18.4 mph 35.7 mph N/A   Overcast
8:35 AM 62.1 °F 57.9 °F 86% 29.45 in 10.0 mi South 20.7 mph 35.7 mph N/A   Overcast
8:52 AM 63.0 °F 59.0 °F 87% 29.46 in 10.0 mi South 16.1 mph 31.1 mph N/A   Mostly Cloudy
9:48 AM 64.4 °F 57.2 °F 77% 29.46 in 10.0 mi South 18.4 mph 32.2 mph N/A   Overcast
9:52 AM 64.0 °F 57.9 °F 80% 29.45 in 10.0 mi SSW 13.8 mph 32.2 mph N/A   Overcast
10:52 AM 63.0 °F 57.0 °F 81% 29.48 in 10.0 mi SSW 15.0 mph 32.2 mph N/A   Overcast
11:52 AM 66.0 °F 55.9 °F 70% 29.49 in 10.0 mi SSW 17.3 mph 31.1 mph N/A   Mostly Cloudy
12:15 PM 64.0 °F 53.1 °F 67% 29.51 in 10.0 mi WSW 20.7 mph 34.5 mph N/A   Scattered Clouds
12:52 PM 63.0 °F 48.0 °F 58% 29.52 in 10.0 mi WSW 18.4 mph 27.6 mph N/A   Clear
1:52 PM 64.0 °F 42.1 °F 45% 29.52 in 10.0 mi SW 17.3 mph 34.5 mph N/A   Clear
2:52 PM 64.9 °F 42.1 °F 43% 29.52 in 10.0 mi SW 17.3 mph 29.9 mph N/A   Clear
3:52 PM 63.0 °F 39.0 °F 41% 29.55 in 10.0 mi WSW 18.4 mph 33.4 mph N/A   Clear
4:52 PM 61.0 °F 39.9 °F 46% 29.58 in 10.0 mi SW 18.4 mph 33.4 mph N/A   Partly Cloudy
5:52 PM 57.9 °F 41.0 °F 53% 29.62 in 10.0 mi WSW 21.9 mph 33.4 mph N/A   Overcast
6:52 PM 57.0 °F 37.9 °F 49% 29.65 in 10.0 mi SW 13.8 mph 26.5 mph N/A   Overcast
7:52 PM 55.0 °F 39.0 °F 55% 29.65 in 10.0 mi SSW 8.1 mph - N/A   Partly Cloudy
8:52 PM 55.0 °F 39.9 °F 57% 29.66 in 10.0 mi SW 9.2 mph - N/A   Overcast
9:52 PM 54.0 °F 39.0 °F 57% 29.67 in 10.0 mi SW 13.8 mph 25.3 mph N/A   Clear
10:52 PM 54.0 °F 37.9 °F 55% 29.67 in 10.0 mi SW 15.0 mph 23.0 mph N/A   Clear
11:52 PM 52.0 °F 37.9 °F 59% 29.67 in 10.0 mi SW 9.2 mph 19.6 mph N/A   Clear